Mobile Site You Are Here >  >  >  > Query Results

Draft Finder Query Results

» Show/Hide Search Form · Make Tiny URL

Players drafted between 1970 and 2011, by the New York Jets, played , in the 1st round
Misc Games
Rk Year Rnd Pick Pos DrAge Tm From To AP1 PB St CarAV G GS College/Univ
1 2011 1 30 Muhammad Wilkerson DT 21 NYJ 2011 2014 0 0 4 31 61 60 Temple College Stats
2 2010 1 29 Kyle Wilson DB 23 NYJ 2010 2014 0 0 1 15 80 28 Boise St. College Stats
3 2009 1 5 Mark Sanchez QB 22 NYJ 2009 2014 0 0 4 33 71 70 USC College Stats
4 2008 1 6 Vernon Gholston DE 22 NYJ 2008 2010 0 0 0 6 45 5 Ohio St. College Stats
5 2008 1 30 Dustin Keller TE 23 NYJ 2008 2013 0 0 3 22 72 48 Purdue College Stats
6 2007 1 14 Darrelle Revis DB 22 NYJ 2007 2014 4 6 7 82 111 111 Pittsburgh College Stats
7 2006 1 4 D'Brickashaw Ferguson T 22 NYJ 2006 2014 0 3 9 53 144 144 Virginia
8 2006 1 29 Nick Mangold C 22 NYJ 2006 2014 2 6 9 64 141 141 Ohio St.
9 2004 1 12 Jonathan Vilma LB 22 NYJ 2004 2013 0 3 8 58 125 121 Miami (FL) College Stats
10 2003 1 4 Dewayne Robertson DT 21 NYJ 2003 2008 0 0 4 34 92 90 Kentucky
11 2002 1 22 Bryan Thomas DE 23 NYJ 2002 2012 0 0 7 57 157 104 Ala-Birmingham College Stats
12 2001 1 16 Santana Moss WR 22 NYJ 2001 2014 0 1 8 73 197 135 Miami (FL) College Stats
13 2000 1 12 Shaun Ellis DE 23 NYJ 2000 2011 0 2 9 66 185 166 Tennessee
14 2000 1 13 John Abraham DE 22 NYJ 2000 2014 2 5 11 90 192 175 South Carolina
15 2000 1 18 Chad Pennington QB 24 NYJ 2000 2010 0 0 5 55 89 81 Marshall College Stats
16 2000 1 27 Anthony Becht TE 23 NYJ 2000 2011 0 0 6 12 168 132 West Virginia College Stats
17 1997 1 8 James Farrior LB 22 NYJ 1997 2011 1 2 10 96 230 197 Virginia
18 1996 1 1 Keyshawn Johnson WR 24 NYJ 1996 2006 0 3 10 78 167 162 USC College Stats
19 1995 1 9 Kyle Brady TE 23 NYJ 1995 2007 0 0 12 26 197 174 Penn St. College Stats
20 1995 1 16 Hugh Douglas DE 24 NYJ 1995 2004 1 3 7 70 138 108 Central State (OH)
21 1994 1 12 Aaron Glenn DB 22 NYJ 1994 2008 0 3 11 71 205 176 Texas A&M College Stats
22 1993 1 4 Marvin Jones LB 21 NYJ 1993 2003 0 0 8 52 142 129 Florida St. College Stats
23 1992 1 15 Johnny Mitchell TE 21 NYJ 1992 1996 0 0 2 16 57 43 Nebraska College Stats
24 1990 1 2 Blair Thomas RB 22 NYJ 1990 1995 0 0 3 20 64 36 Penn St. College Stats
25 1989 1 14 Jeff Lageman DE 22 NYJ 1989 1998 0 0 7 44 122 118 Virginia
26 1988 1 8 Dave Cadigan G 23 NYJ 1988 1994 0 0 5 28 82 64 USC College Stats
27 1987 1 21 Roger Vick RB 23 NYJ 1987 1990 0 0 3 12 58 32 Texas A&M College Stats
28 1986 1 22 Mike Haight G 23 NYJ 1986 1992 0 0 3 20 63 43 Iowa
29 1985 1 10 Al Toon WR 22 NYJ 1985 1992 1 3 8 54 107 95 Wisconsin College Stats
30 1984 1 10 Russell Carter DB 22 NYJ 1984 1989 0 0 3 20 64 47 SMU College Stats
Misc Games
Rk Year Rnd Pick Pos DrAge Tm From To AP1 PB St CarAV G GS College/Univ
31 1984 1 15 Ron Faurot DE 22 NYJ 1984 1985 0 0 1 6 20 13 Arkansas
32 1983 1 24 Ken O'Brien QB 22 NYJ 1984 1993 0 2 7 72 129 110 California-Davis
33 1982 1 23 Bob Crable LB 22 NYJ 1982 1987 0 0 3 21 66 43 Notre Dame College Stats
34 1981 1 3 Freeman McNeil RB 22 NYJ 1981 1992 1 3 8 78 144 97 UCLA College Stats
35 1980 1 2 Lam Jones WR 22 NYJ 1980 1984 0 0 3 21 61 38 Texas College Stats
36 1979 1 14 Marty Lyons DE 22 NYJ 1979 1989 0 0 10 49 147 135 Alabama College Stats
37 1978 1 4 Chris Ward T 22 NYJ 1978 1984 0 0 6 43 100 95 Ohio St. College Stats
38 1977 1 4 Marvin Powell T 22 NYJ 1977 1987 3 5 9 76 133 130 USC College Stats
39 1976 1 6 Richard Todd QB 22 NYJ 1976 1985 0 0 7 62 119 108 Alabama College Stats
40 1974 1 6 Carl Barzilauskas DT 23 NYJ 1974 1979 0 0 5 24 70 69 Indiana
41 1973 1 13 Burgess Owens DB 22 NYJ 1973 1982 0 0 10 46 137 137 Miami (FL)
42 1972 1 9 Jerome Barkum TE 22 NYJ 1972 1983 0 1 10 44 158 136 Jackson St.
43 1972 1 20 Michael Taylor LB 22 NYJ 1972 1973 0 0 0 6 22 8 Michigan College Stats
44 1971 1 6 John Riggins HOF RB 22 NYJ 1971 1985 1 1 12 91 175 159 Kansas College Stats
45 1970 1 20 Steve Tannen DB 22 NYJ 1970 1974 0 0 3 19 61 37 Florida